GFSCGP_925_temp_057.txt.gz
Temp
22 23 23 25 26 26 25 26 26 27 23 22 24 25 27 28 28 27 27 27 28 28 28 27 26 23 21 20 19 18 17 16 15 15 14 15 15 15 14 15 16 15 14 15
22 22 25 23 24 23 24 24 25 26 23 21 24 24 26 26 27 27 28 28 28 28 29 28 26 24 21 19 18 18 17 16 15 15 15 15 14 15 14 12 13 14 13 15
23 23 22 22 21 22 23 24 25 24 22 23 22 24 27 29 27 26 27 28 28 28 29 29 27 24 21 19 18 17 17 16 15 15 15 14 14 13 11 10 11 13 14 15
22 22 20 21 22 23 23 24 23 22 22 23 22 24 27 28 29 28 28 27 28 28 27 27 27 26 21 20 18 17 17 16 15 14 15 14 13 11 11 10 11 12 13 13
22 19 19 20 22 22 22 20 21 21 21 21 23 21 26 28 26 28 28 28 29 28 28 27 25 24 23 20 18 17 16 16 15 14 14 14 12 13 13 11 10 11 12 13
21 17 20 21 18 21 19 20 20 20 21 21 23 23 25 28 29 29 28 28 28 26 24 23 22 21 20 19 17 16 16 15 15 14 13 14 13 13 13 10 9 11 12 12
20 19 18 18 18 18 20 21 21 21 19 21 20 21 24 26 27 27 27 27 27 24 23 24 23 20 18 17 15 14 14 15 14 14 13 13 13 13 13 11 10 9 10 10
21 20 19 18 21 20 19 22 22 21 22 23 16 20 25 26 26 26 25 25 24 24 22 21 22 21 19 15 14 14 13 14 14 13 13 12 12 12 13 11 11 10 9 10
22 20 19 18 20 22 19 19 22 21 14 18 22 25 27 23 22 24 24 24 24 24 24 23 22 21 18 16 14 13 13 13 13 12 12 12 11 12 12 11 11 10 10 9
21 20 16 16 17 18 19 21 19 19 18 19 22 23 25 25 26 25 24 24 24 22 21 20 21 19 17 15 14 13 12 12 12 12 11 11 11 11 11 11 10 9 9 9
20 19 16 15 16 19 17 18 18 20 20 20 20 23 27 26 26 26 24 22 22 21 21 19 19 17 15 13 12 12 12 11 11 11 10 9 10 10 10 9 9 8 8 9
18 18 18 18 17 16 19 20 19 19 18 19 19 21 22 25 25 22 23 22 22 21 20 20 19 17 16 14 13 12 12 11 10 10 9 9 9 9 9 8 8 8 8 8
16 13 14 16 16 15 16 18 18 20 17 17 17 20 24 25 23 23 22 22 22 21 20 21 21 21 20 18 15 13 12 11 10 9 9 8 8 8 8 8 8 7 6 7
12 11 12 16 19 19 17 17 18 18 17 18 19 21 23 24 24 24 23 21 22 22 21 23 21 22 22 20 18 15 13 12 10 9 8 8 8 7 8 8 7 6 6 7
12 10 11 14 16 17 17 17 18 17 17 17 19 20 22 23 23 23 24 23 23 22 22 22 22 20 20 21 18 15 14 13 11 9 8 8 7 7 7 7 6 5 5 6
12 11 14 12 15 16 15 17 17 18 17 18 19 19 22 22 23 22 22 22 22 21 21 21 21 21 19 19 18 16 14 13 11 9 8 7 7 6 6 6 5 5 4 5
10 10 10 12 14 13 12 12 16 17 18 18 17 19 20 21 21 21 21 21 21 21 21 20 20 19 19 18 17 16 14 13 11 9 8 7 6 6 5 5 4 4 3 4
10 10 10 11 11 12 15 17 17 17 17 18 18 18 19 19 20 20 20 19 19 19 20 20 19 19 18 15 13 12 11 11 9 7 6 5 4 4 3 3 3 2 2 2
11 11 10 10 11 13 15 16 16 15 16 18 18 18 19 19 19 19 20 19 19 19 19 18 13 11 11 10 9 8 7 6 5 4 3 3 2 2 2 1 1 1 1 0
11 11 10 10 10 11 16 17 18 17 14 17 13 15 17 18 16 18 18 16 14 13 10 8 7 7 8 7 5 6 5 4 3 3 2 2 1 1 1 0 0 -0 -0 -0
9 9 9 9 10 12 13 14 15 12 13 8 10 10 11 12 15 14 13 12 10 8 7 6 6 6 4 3 4 3 2 2 1 1 1 0 0 -0 -0 -1 -1 -1 -2 -2
11 10 9 9 9 9 10 12 13 11 10 10 10 11 10 10 10 10 11 9 8 7 7 5 5 4 2 2 3 2 -0 -0 0 0 -0 -1 -1 -1 -2 -2 -2 -2 -2 -3
8 10 10 10 10 9 9 9 11 8 8 9 10 10 11 10 10 10 10 8 6 4 4 2 2 1 -0 0 1 -0 -2 -1 -1 -1 -2 -3 -3 -3 -3 -3 -3 -4 -4 -4
9 8 8 9 10 9 9 10 10 10 10 11 11 10 10 8 9 8 8 8 6 2 0 -0 -0 -1 -2 -1 -1 -1 -1 -1 -1 -3 -3 -4 -4 -4 -4 -4 -4 -4 -4 -4
8 7 7 7 8 8 8 9 10 10 10 10 10 10 10 9 8 8 8 3 2 0 -1 -1 -1 -2 -4 -3 -2 -2 -2 -1 -2 -2 -3 -4 -4 -4 -4 -3 -3 -3 -3 -3
8 8 8 7 9 8 9 10 10 8 7 8 8 9 9 4 5 5 5 2 1 -0 -2 -3 -4 -5 -5 -4 -3 -2 -2 -1 -2 -3 -3 -3 -3 -4 -4 -4 -4 -3 -3 -3

GFSCGP_925_temp_060.txt.gz
Temp
22 20 19 22 22 24 23 23 23 24 21 22 20 20 22 23 23 22 21 21 21 22 24 27 26 24 23 22 21 20 19 17 17 16 16 16 16 16 16 17 17 17 17 16
20 19 22 23 22 23 23 22 21 23 21 21 20 20 21 22 22 22 22 22 22 22 22 24 26 25 23 22 21 20 19 18 16 16 15 15 16 16 16 16 16 17 17 16
20 22 22 22 21 22 21 21 21 22 21 20 19 18 21 22 22 22 22 23 23 22 22 22 22 24 23 21 21 20 19 18 16 15 15 15 15 15 15 15 15 16 16 15
20 21 20 20 20 21 20 22 22 21 20 19 22 17 22 23 23 23 21 21 21 22 22 22 24 22 22 21 21 19 18 18 16 16 15 15 14 14 14 14 14 14 14 13
20 18 18 19 20 21 20 20 21 21 19 19 20 17 19 22 23 24 24 23 23 23 22 22 21 24 23 22 20 19 18 17 17 16 15 15 14 14 14 13 13 12 10 12
18 17 19 20 17 19 18 19 20 19 18 15 18 18 20 22 24 26 27 26 22 21 21 22 22 22 22 21 20 19 18 17 16 16 15 15 14 13 13 13 12 11 9 10
18 17 18 18 17 18 19 19 17 15 14 14 19 18 21 23 23 24 24 23 24 20 21 20 19 17 19 19 18 18 17 16 16 15 15 14 14 14 13 13 12 11 9 9
17 17 16 16 18 17 16 18 15 16 15 16 14 16 19 22 24 24 23 21 22 21 19 17 17 18 18 17 16 16 15 15 15 15 14 14 14 13 13 13 12 12 11 10
18 19 18 17 19 19 17 16 20 17 10 12 17 19 22 22 22 21 20 21 20 19 17 18 19 19 17 16 15 14 14 14 14 14 14 13 13 13 12 12 13 11 11 11
19 18 15 15 17 17 17 18 16 15 14 13 17 18 19 22 21 20 22 22 20 19 18 17 16 17 17 16 15 14 14 14 13 13 13 13 13 12 12 12 12 11 11 10
18 17 14 15 15 16 15 16 17 18 15 14 15 17 23 22 21 20 20 20 20 19 17 16 15 16 16 15 15 14 14 14 13 13 13 12 12 12 11 11 11 11 11 10
17 16 14 14 16 15 17 17 17 15 15 14 13 19 21 20 20 20 21 21 21 19 17 17 16 16 16 15 14 14 14 14 15 15 13 12 11 11 10 11 10 10 10 10
15 13 11 15 15 14 15 17 17 17 13 13 12 17 20 20 20 22 22 20 19 20 19 17 16 16 18 19 18 16 16 17 16 13 12 11 11 10 10 10 10 9 9 8
13 11 12 14 15 15 15 16 16 16 12 16 15 17 19 19 19 19 19 19 19 18 17 17 16 16 19 20 19 18 18 17 17 14 12 11 11 10 9 9 9 8 8 8
12 10 11 12 13 14 14 12 13 14 14 14 16 16 18 19 19 19 19 19 18 18 18 17 17 16 17 18 19 19 18 18 17 14 12 12 11 10 9 8 8 8 7 7
11 11 11 11 12 13 13 14 14 14 15 15 15 16 18 19 19 19 19 18 17 17 17 17 16 15 16 18 19 19 18 18 15 13 12 12 10 9 8 7 7 7 7 6
10 9 10 11 12 11 11 11 13 14 15 16 15 17 17 17 17 18 17 16 17 17 17 16 15 15 17 17 15 15 15 15 14 13 12 10 8 8 7 7 6 6 6 5
9 9 9 10 9 10 13 16 14 14 15 15 16 16 17 17 17 17 16 15 17 17 16 15 15 14 13 12 12 12 12 11 11 10 9 8 7 6 6 6 5 5 4 4
10 9 9 9 9 11 12 13 13 13 13 15 15 16 16 14 12 15 13 11 11 11 10 9 8 9 9 9 8 8 8 7 6 6 6 6 5 4 4 4 3 3 2 2
10 10 9 8 5 4 12 13 14 13 11 11 11 11 10 10 11 13 9 9 9 9 8 7 8 7 7 7 6 6 6 5 4 4 3 3 2 2 2 2 1 1 1 1
6 5 8 9 8 9 9 11 12 9 10 5 9 9 9 9 10 10 9 9 9 8 8 7 6 6 5 5 4 4 3 2 2 2 2 1 1 1 0 0 -0 -0 -1 -1
6 4 4 5 7 8 10 10 10 9 8 8 8 7 7 7 8 7 7 6 5 5 7 7 5 4 3 3 2 2 1 -0 -0 -0 -0 -1 -1 -1 -1 -1 -2 -2 -2 -3
4 7 5 7 7 8 9 10 10 8 8 8 8 7 7 7 6 6 6 7 5 5 5 5 3 2 1 1 1 0 -1 -1 -1 -2 -2 -3 -3 -3 -3 -3 -3 -4 -4 -4
4 4 3 3 5 7 8 8 9 9 7 7 7 6 6 7 6 5 5 5 4 5 4 3 1 -0 -1 -0 -0 -1 -2 -2 -2 -3 -3 -4 -4 -4 -4 -4 -3 -4 -4 -4
3 3 2 2 4 3 4 5 7 7 6 6 6 6 6 6 6 6 5 3 3 4 2 1 -0 -1 -2 -2 -2 -2 -2 -2 -3 -3 -4 -4 -4 -4 -4 -3 -3 -3 -3 -3
4 5 4 5 5 5 6 6 6 5 5 5 5 5 5 4 3 4 2 2 2 1 -0 -1 -2 -2 -3 -3 -3 -3 -3 -3 -2 -3 -4 -4 -4 -4 -4 -4 -3 -3 -3 -3

GFSCGP_925_temp_063.txt.gz
Temp
20 17 16 17 18 20 22 22 21 20 21 21 18 17 18 19 18 17 17 16 17 18 21 24 24 25 24 23 22 21 20 19 18 17 17 17 17 17 17 17 18 18 17 17
17 17 18 19 20 21 22 21 20 20 20 20 19 18 18 18 20 19 20 17 17 17 19 21 23 24 24 24 22 22 20 19 18 18 17 16 16 17 17 17 17 17 18 18
17 20 19 21 21 21 21 20 20 21 19 19 18 17 19 20 18 19 18 18 18 18 18 18 20 22 23 22 23 22 21 20 18 17 16 16 15 15 16 16 17 17 17 17
18 19 19 20 20 20 20 20 20 20 18 17 18 16 16 22 21 21 20 18 17 17 18 18 19 20 20 22 23 22 21 20 19 18 16 16 15 14 14 15 16 16 16 16
18 18 18 19 19 19 19 20 20 20 18 17 17 16 16 17 21 21 21 21 19 18 17 18 18 21 22 22 22 22 21 20 19 18 16 15 14 14 14 14 15 15 15 15
17 17 18 18 16 18 17 18 17 16 15 14 15 16 15 19 21 23 22 21 21 20 19 19 20 20 21 21 21 21 20 19 18 17 16 15 15 14 14 14 14 14 14 14
17 17 17 17 16 16 18 16 15 14 12 14 15 15 17 20 21 23 23 21 21 20 19 19 20 18 19 19 19 19 18 18 18 17 16 16 15 15 15 14 14 13 13 13
15 16 15 16 16 16 15 16 14 15 13 14 14 15 19 19 19 23 21 20 19 18 16 16 16 17 17 17 17 17 17 17 17 16 16 16 15 15 14 14 14 13 13 13
15 16 15 15 17 17 16 16 16 15 6 10 15 16 18 19 20 19 19 19 16 17 16 16 15 16 16 17 17 17 16 16 16 16 16 15 15 15 14 14 13 13 13 12
18 17 13 14 17 15 16 16 15 12 13 12 15 16 17 19 20 20 19 17 17 16 14 13 13 15 15 16 16 16 15 15 16 15 15 15 15 14 14 14 13 13 12 12
16 16 13 15 14 15 15 16 16 16 13 13 13 16 16 19 19 17 17 18 18 16 15 14 14 16 16 17 17 16 16 16 15 16 16 15 15 14 13 13 13 12 12 12
16 14 10 14 15 15 15 15 15 13 14 12 12 18 19 17 17 17 18 18 18 17 15 14 15 16 16 16 18 18 17 16 17 16 16 16 15 14 13 12 12 12 11 11
14 11 9 12 14 14 15 15 16 15 11 13 12 17 17 15 17 16 17 19 17 19 18 15 14 14 16 17 16 17 19 19 18 17 16 16 15 13 12 12 12 11 11 10
13 11 12 12 13 14 13 13 14 15 12 14 14 17 18 17 16 16 16 16 17 17 16 15 14 15 15 17 18 19 19 19 18 17 16 15 16 14 13 12 11 10 10 10
12 11 11 12 13 13 12 12 12 11 12 11 15 13 16 15 16 17 16 16 16 15 16 15 15 13 17 18 19 18 18 18 17 16 15 16 16 14 12 11 10 9 9 9
10 10 11 10 11 12 11 12 12 12 12 12 13 13 16 16 16 16 15 15 14 14 14 14 14 14 15 17 16 15 15 15 15 15 15 15 14 13 12 10 9 8 8 8
10 9 10 11 10 10 10 11 12 13 14 15 14 15 16 15 15 15 15 14 13 11 11 10 10 10 10 11 11 11 11 12 12 12 13 12 11 10 10 9 8 7 7 7
10 9 9 8 8 10 11 12 12 12 13 14 14 15 15 15 12 13 12 10 10 10 9 9 8 8 9 9 10 9 10 9 9 9 9 9 9 8 7 7 7 6 6 5
9 9 7 4 4 8 11 12 12 12 12 13 13 14 12 9 9 12 9 10 10 9 8 8 8 7 8 9 9 8 8 8 7 7 7 6 6 6 5 5 5 4 4 3
7 9 8 1 6 5 10 12 12 11 10 9 9 9 8 8 9 8 9 8 8 8 9 8 9 8 7 8 6 6 7 6 5 5 4 4 4 3 3 3 2 2 2 2
7 7 8 8 6 4 7 8 12 8 9 5 9 9 8 8 9 9 7 7 8 8 8 9 8 7 7 6 5 4 4 4 3 2 2 2 2 2 1 1 0 1 0 -0
6 6 6 8 7 7 8 8 8 8 7 5 7 6 7 6 6 5 5 5 5 5 6 7 6 6 5 3 2 2 1 2 1 1 0 0 -0 -0 -0 -0 -1 -1 -1 -2
4 5 3 5 6 7 9 8 8 7 8 8 8 7 6 6 5 6 5 5 5 5 5 5 5 5 5 3 1 1 2 0 -0 -0 -1 -2 -2 -2 -2 -2 -2 -3 -3 -3
2 1 3 4 4 3 7 7 7 7 7 7 6 5 5 5 5 4 3 4 4 3 3 4 3 2 2 2 0 -0 -0 -1 -2 -2 -3 -3 -3 -3 -3 -3 -3 -3 -3 -4
3 2 1 1 2 2 2 4 6 6 6 5 4 4 4 4 4 3 3 1 2 2 2 2 1 -0 -0 -1 -1 -2 -2 -3 -3 -3 -4 -4 -4 -4 -4 -4 -4 -4 -4 -3
3 4 2 1 3 3 4 4 4 4 4 4 3 3 3 2 2 2 1 2 2 1 2 -0 -1 -2 -2 -3 -3 -4 -3 -3 -3 -4 -4 -4 -4 -4 -3 -3 -3 -3 -3 -3

GFSCGP_925_temp_069.txt.gz
Temp
16 17 16 17 17 19 17 19 20 19 19 19 17 16 16 17 16 15 15 14 14 14 17 20 21 21 20 19 19 19 18 19 18 17 17 16 16 17 17 17 18 18 18 16
16 16 17 16 17 19 19 19 19 19 18 19 17 16 16 16 17 17 17 16 14 14 15 16 19 20 20 20 20 19 19 18 18 17 17 16 16 16 17 17 18 17 17 17
17 19 16 18 17 18 18 18 19 19 18 17 16 16 16 18 17 17 16 15 15 14 14 15 16 18 20 19 19 19 20 20 19 18 16 15 15 15 15 16 16 17 17 16
18 18 16 18 18 17 18 18 18 18 17 17 16 16 15 17 15 16 17 15 15 15 15 14 15 18 19 20 20 19 18 19 19 17 16 16 15 15 15 16 16 17 17 16
17 17 17 18 18 18 19 17 17 17 15 16 16 15 15 15 19 18 17 17 16 14 15 14 13 17 17 19 19 18 17 17 16 17 16 16 15 15 15 15 15 15 16 16
16 15 17 17 15 18 14 15 13 12 13 14 14 15 15 17 19 21 19 18 15 14 13 13 15 17 16 17 17 17 16 16 16 16 16 16 16 16 15 15 15 15 15 15
16 16 16 16 15 16 16 16 14 14 12 14 13 13 14 16 17 18 17 16 13 11 11 11 11 13 15 16 16 16 16 16 16 16 16 16 16 16 15 15 15 15 15 14
14 15 15 15 16 15 15 16 14 14 12 14 13 14 17 17 16 16 15 15 14 12 10 10 11 13 15 16 17 17 17 16 16 16 16 16 15 15 15 15 15 15 15 15
14 16 15 15 15 16 16 15 15 11 2 9 13 14 16 16 15 15 15 14 13 12 11 11 12 14 16 16 17 17 17 17 18 17 17 16 16 15 15 15 15 14 14 14
15 15 13 14 15 15 16 14 14 10 12 11 13 15 16 19 14 16 15 14 15 14 12 12 12 14 15 16 16 17 17 18 18 18 17 17 17 16 16 15 15 15 14 14
14 15 13 14 13 13 15 15 13 14 12 12 10 14 14 16 14 14 15 15 15 15 13 12 13 15 16 17 17 17 17 18 18 16 16 16 16 16 15 15 15 15 14 14
14 13 10 13 13 13 15 14 14 13 13 10 11 14 14 14 13 14 15 15 15 16 14 11 13 14 15 15 16 16 16 16 16 15 15 16 16 16 16 16 16 15 14 13
13 11 9 13 13 13 13 13 14 12 11 12 12 13 14 12 13 13 14 16 15 15 12 11 11 11 12 12 13 13 13 13 13 14 14 15 15 15 14 14 14 14 13 13
13 11 13 15 14 13 13 12 13 14 11 14 13 15 14 12 13 13 13 13 13 11 10 9 9 9 10 11 11 11 12 11 12 12 13 13 13 13 13 13 13 12 11 11
13 10 12 11 11 12 11 11 11 12 15 13 15 14 14 13 13 14 14 12 10 10 9 8 8 8 9 9 9 9 10 10 9 10 10 10 10 11 11 11 11 11 11 10
11 9 10 10 11 12 12 11 10 10 11 10 11 11 12 13 12 13 11 9 9 9 9 8 7 8 8 8 8 8 9 9 9 10 9 9 9 10 10 10 10 10 9 9
11 9 9 10 10 10 11 10 10 10 10 11 12 14 13 13 13 12 9 9 9 8 8 7 7 7 8 8 8 9 9 9 9 9 9 8 8 8 8 8 8 8 7 7
10 9 9 8 9 11 12 11 12 12 12 12 12 12 11 11 10 9 9 9 9 8 8 7 7 8 8 9 9 8 9 9 9 9 8 6 5 5 5 5 6 7 6 6
9 9 8 9 9 9 11 10 9 10 11 11 11 8 8 8 8 8 8 9 9 7 7 7 7 7 8 8 7 7 8 8 8 7 7 6 5 4 4 4 3 4 4 4
8 9 9 6 9 7 9 10 10 10 9 9 9 7 7 7 8 6 7 7 6 7 7 7 7 6 6 7 6 5 6 6 6 5 5 5 4 3 3 3 2 2 2 2
8 8 9 4 6 6 6 8 10 7 8 3 6 7 7 7 7 6 5 5 6 6 6 6 5 4 5 5 4 4 4 4 4 3 3 3 3 2 2 2 1 1 1 0
8 8 7 6 6 7 6 8 9 7 4 4 6 7 7 6 6 5 4 4 5 4 5 5 3 3 4 4 2 2 1 3 2 2 2 2 2 1 0 -0 -0 -0 -1 -1
5 5 4 6 7 6 4 7 6 5 5 6 6 6 6 5 5 3 3 2 3 4 4 4 3 3 4 4 2 0 3 2 1 1 1 1 0 -0 -1 -1 -1 -2 -2 -2
1 -1 1 3 1 3 6 6 5 6 5 5 6 6 5 4 3 2 2 1 2 3 3 3 2 1 1 3 2 1 1 0 -1 -1 -2 -2 -2 -2 -2 -3 -3 -3 -3 -3
2 2 -1 0 0 0 1 2 5 7 7 6 5 4 4 2 2 1 1 -0 1 2 1 0 -0 -1 -0 1 1 2 0 -1 -2 -3 -3 -3 -3 -3 -3 -3 -3 -4 -4 -4
2 3 4 3 3 4 4 4 5 4 4 4 3 2 2 1 0 0 -1 0 -0 -1 -1 -1 -1 -1 -1 -0 0 0 -1 -3 -4 -4 -5 -5 -5 -4 -4 -4 -3 -3 -4 -4

GFSCGP_925_temp_072.txt.gz
Temp
16 16 16 17 17 18 16 18 19 18 18 18 17 15 15 16 16 14 14 14 13 13 16 19 20 20 19 19 18 18 18 18 17 16 15 15 15 15 16 16 16 16 17 17
15 16 17 15 17 17 17 18 19 18 17 18 16 16 15 15 16 16 16 15 14 14 13 15 17 18 19 19 19 18 18 17 18 17 16 16 15 15 15 16 16 17 17 17
16 18 15 16 16 17 18 17 18 19 17 16 14 16 16 17 16 16 16 14 14 14 13 12 15 17 18 18 19 18 19 18 18 17 16 15 15 15 15 15 16 16 17 17
18 16 16 16 16 16 17 16 17 17 16 16 15 16 16 16 15 16 15 12 12 12 12 11 13 16 17 18 18 18 17 17 17 16 16 16 15 15 15 15 15 16 16 16
17 15 15 17 18 17 18 16 16 16 14 15 16 15 16 15 19 19 16 14 12 11 11 11 11 14 15 17 18 18 17 16 16 15 15 15 15 15 15 15 15 15 16 15
15 15 17 17 14 16 13 14 12 11 12 14 15 15 16 17 20 19 17 14 12 11 10 10 13 14 15 16 16 16 16 15 15 15 15 15 15 16 15 15 15 15 15 15
15 16 15 15 15 15 15 15 14 14 12 14 12 13 15 17 16 17 16 14 11 10 10 10 9 12 13 15 15 15 15 15 14 14 14 15 15 15 15 15 14 14 14 14
14 15 14 15 16 15 15 16 14 15 12 14 12 13 16 16 13 15 14 14 11 10 9 9 10 12 13 13 14 15 15 15 14 14 14 14 15 14 14 14 14 14 14 14
14 15 14 15 15 16 15 15 14 10 1 9 13 13 17 13 14 13 13 12 12 11 10 10 11 12 13 14 14 15 15 14 14 15 15 15 15 14 14 14 14 14 14 14
15 15 13 14 15 15 15 13 14 10 11 12 13 14 15 16 15 14 14 13 13 11 11 10 11 13 14 15 15 16 16 15 15 15 15 15 14 14 14 14 14 14 14 13
14 15 13 14 13 13 14 14 13 13 12 11 10 14 12 14 13 13 13 14 14 12 11 10 11 13 14 14 14 14 14 14 14 14 14 15 14 14 14 13 13 13 13 13
14 12 11 13 13 12 14 14 13 12 12 9 10 13 13 12 12 13 14 14 13 11 10 9 10 11 11 11 12 12 12 13 12 13 14 14 14 14 14 13 13 13 13 13
13 11 8 12 13 12 13 13 12 11 10 10 11 12 12 11 12 14 14 14 12 10 9 7 8 8 9 10 10 10 11 11 11 12 12 13 13 13 13 13 13 13 12 12
14 11 12 15 14 12 13 12 12 15 12 13 12 13 13 11 11 13 13 12 11 9 8 7 7 7 8 9 9 9 10 10 11 11 11 11 11 11 11 12 13 13 12 12
13 11 12 11 12 12 12 12 11 13 15 15 14 13 15 13 10 13 12 10 9 9 8 7 7 7 8 8 8 8 8 9 9 10 9 9 9 9 9 10 10 11 11 11
11 9 10 9 11 11 12 11 10 12 11 12 11 12 12 13 11 11 9 9 9 8 7 7 6 7 7 7 7 7 7 8 8 8 7 7 7 8 7 7 8 8 8 8
11 9 8 8 9 11 11 10 9 10 10 11 12 14 11 13 12 11 7 8 7 8 7 6 6 6 7 6 6 7 7 8 8 7 7 7 7 7 6 6 6 6 6 6
10 9 9 9 10 12 12 10 11 11 11 11 12 11 11 11 9 8 8 7 7 7 7 6 6 6 7 7 7 7 8 9 8 8 7 7 6 5 5 5 4 4 4 4
10 9 9 10 10 9 10 10 9 11 11 11 11 9 8 7 7 8 7 7 7 7 6 6 6 6 7 6 6 7 8 8 8 7 7 6 5 4 4 3 3 3 2 2
9 10 11 6 9 8 10 10 9 11 9 9 9 7 6 6 7 6 6 6 6 6 6 6 6 6 6 6 5 6 6 6 6 5 5 4 4 3 3 2 2 2 1 1
9 8 9 8 7 6 6 8 9 9 9 3 6 6 5 7 7 5 5 6 5 5 6 5 5 5 5 5 4 5 4 5 4 3 3 4 3 2 2 1 1 0 -0 0
10 9 9 7 7 9 6 8 10 7 4 4 5 5 5 5 5 5 5 5 5 4 5 5 4 4 5 4 3 2 2 3 2 2 2 2 2 1 1 -1 -0 -1 -2 -2
7 7 6 8 8 5 4 7 5 4 4 5 4 4 4 4 5 4 3 3 3 4 4 4 3 3 4 4 2 1 3 1 1 2 2 2 1 -0 -0 -2 -2 -3 -3 -3
1 -0 3 5 2 2 5 4 5 5 4 4 4 5 5 5 4 3 1 1 1 3 3 2 1 1 1 2 1 1 1 0 -0 -0 -0 -0 -1 -2 -2 -2 -3 -3 -3 -4
2 2 -1 -1 -0 0 1 2 4 4 4 4 4 4 4 3 2 1 -0 -1 1 1 0 -1 -2 -2 -2 -1 -1 -1 -2 -2 -3 -3 -5 -5 -5 -5 -5 -4 -4 -4 -3 -4
2 3 4 3 3 4 5 3 4 4 4 3 3 3 1 1 0 -0 -3 -1 -2 -3 -4 -4 -4 -5 -5 -5 -5 -4 -4 -4 -5 -5 -6 -6 -5 -5 -5 -4 -4 -3 -4 -4

GFSCGP_925_temp_075.txt.gz
Temp
15 16 16 16 18 17 15 17 18 17 17 18 17 15 15 16 16 16 16 15 14 14 15 17 18 19 19 18 17 17 17 18 17 16 15 15 15 15 15 15 16 15 16 16
15 16 16 14 15 16 17 17 18 17 16 17 16 16 16 15 16 16 16 15 14 13 13 15 16 17 18 19 18 17 17 17 17 16 15 15 15 15 15 15 16 15 16 16
16 17 14 16 16 17 17 17 17 19 16 15 15 17 17 17 15 15 15 13 13 13 12 12 13 15 15 16 17 17 17 17 17 16 15 15 15 15 15 14 14 15 15 15
17 14 15 14 16 16 18 17 16 15 16 17 15 18 16 16 15 16 13 12 11 11 11 10 11 13 14 16 17 17 16 16 16 15 15 15 15 15 15 15 15 14 15 15
16 14 15 16 17 16 17 15 15 14 13 15 16 16 17 15 19 18 15 13 11 10 10 10 11 12 13 14 15 16 16 15 15 15 15 15 14 15 15 15 15 15 15 15
15 14 16 16 13 15 12 13 12 11 12 15 15 15 16 17 19 19 16 13 11 10 10 10 11 12 13 14 14 14 14 14 14 14 14 14 15 15 15 15 15 15 15 14
15 15 15 14 13 14 15 15 14 15 13 14 11 13 16 17 16 16 16 13 10 9 9 9 9 10 12 12 13 14 13 13 13 13 13 13 14 14 14 14 14 14 14 14
13 15 14 15 15 14 14 16 14 15 12 14 11 13 16 15 12 13 13 11 10 9 9 8 9 10 11 13 13 14 14 14 14 13 13 13 13 13 13 13 13 13 13 13
14 15 14 14 14 16 15 15 14 10 1 10 12 13 15 13 13 12 12 11 10 9 9 9 10 10 11 12 12 13 13 13 14 14 14 14 14 14 14 14 13 13 13 14
15 14 12 14 14 14 15 13 14 10 11 12 13 13 15 15 13 12 12 11 11 10 9 9 9 10 11 11 11 12 12 12 12 12 13 13 13 13 13 12 13 13 13 13
14 14 12 13 14 13 14 14 12 13 12 12 10 14 11 13 12 12 11 11 11 10 9 8 8 9 10 11 11 11 12 12 12 13 13 13 13 13 13 13 12 12 13 12
14 12 11 13 12 12 13 14 14 13 12 8 10 14 13 12 11 11 11 11 10 8 7 7 8 9 9 10 10 10 10 11 11 11 12 12 12 12 12 12 12 12 12 12
13 12 9 13 14 11 12 12 12 11 10 10 12 13 10 11 11 12 11 10 9 7 6 6 7 7 7 8 9 9 9 9 10 11 11 11 11 11 11 11 11 11 11 12
14 11 13 16 15 11 12 11 12 14 13 11 12 12 12 11 11 12 13 9 7 7 7 6 6 6 7 8 8 9 9 10 10 10 11 11 11 11 11 11 11 11 11 11
14 12 12 12 12 12 12 11 11 13 16 15 14 13 13 12 11 11 11 9 8 7 7 6 6 6 7 7 8 8 9 10 10 10 10 9 9 9 9 9 9 9 9 9
10 8 10 9 10 12 13 11 12 14 13 13 11 13 13 14 10 10 10 8 8 7 6 6 5 6 6 6 6 7 7 8 8 8 7 7 7 7 7 7 7 7 7 7
10 8 7 7 9 11 10 11 11 12 10 13 12 14 10 10 11 9 8 7 7 6 6 6 5 6 6 6 7 7 8 8 7 7 6 6 6 6 6 5 5 5 4 4
10 9 8 9 9 11 13 10 11 13 11 11 12 11 11 10 9 8 7 6 6 6 5 5 5 5 5 5 6 7 7 6 6 6 5 5 4 4 5 5 4 4 4 3
10 10 9 10 11 11 11 9 9 11 12 10 11 9 8 6 7 7 6 6 5 5 6 6 6 6 5 5 5 7 8 7 6 6 5 5 4 4 4 3 3 3 2 2
9 9 12 8 10 12 12 10 9 11 10 9 10 9 7 7 9 7 5 4 4 6 5 6 6 6 6 6 6 6 6 6 5 4 4 5 4 4 4 3 2 2 1 1
9 9 10 9 8 7 6 8 9 11 11 3 7 6 6 8 8 5 3 4 5 5 5 5 5 5 5 4 4 4 4 3 3 3 4 5 5 4 3 3 2 1 0 0
9 10 8 8 8 10 6 8 10 8 4 4 4 4 5 3 3 3 3 3 4 4 4 4 4 4 4 2 2 2 3 1 1 2 3 3 3 2 1 1 0 -0 -1 -2
8 9 8 9 9 5 5 7 6 4 4 5 4 4 3 3 4 3 3 3 3 4 4 3 2 2 2 1 0 -0 0 -0 -0 0 0 0 1 1 -1 -2 -1 -2 -2 -3
2 0 6 7 4 2 5 4 4 4 4 3 3 3 3 3 2 2 2 1 2 2 2 1 0 -1 -1 -0 -1 -2 -2 -2 -2 -3 -2 -2 -3 -3 -4 -5 -5 -4 -4 -4
3 2 -0 0 1 0 1 1 3 3 2 2 2 3 2 2 1 1 -0 -1 0 -0 -2 -3 -4 -5 -4 -4 -4 -3 -4 -5 -5 -6 -5 -6 -6 -6 -5 -5 -5 -5 -3 -4
1 3 5 5 4 6 5 3 3 3 2 2 2 1 1 2 0 -0 -3 -1 -3 -5 -5 -6 -7 -7 -6 -6 -6 -5 -6 -7 -8 -8 -8 -8 -8 -8 -7 -6 -5 -5 -5 -4